Biloxi Weather Center

Moon Phase Calendar



Online Cameras

 


      

Current Conditions in D'Iberville
4/17/2021 12:42:38 AM

60°F
Feels Like 60
Rain
Humidity
94%
Pressure
29.85"
Wind
9.2 mph (E)
Dew Point
59°F
UV Index
0/10 (Low)
Visibility
6 mi

Hourly Forecast

Date & Time Sat, Apr 17
12:00 AM
Sat, Apr 17
1:00 AM
Sat, Apr 17
2:00 AM
Sat, Apr 17
3:00 AM
Sat, Apr 17
4:00 AM
Sat, Apr 17
5:00 AM
Sat, Apr 17
6:00 AM
Sat, Apr 17
7:00 AM
Sat, Apr 17
8:00 AM
Sat, Apr 17
9:00 AM
Sat, Apr 17
10:00 AM
Sat, Apr 17
11:00 AM
Sat, Apr 17
12:00 PM
Sat, Apr 17
1:00 PM
Sat, Apr 17
2:00 PM
Sat, Apr 17
3:00 PM
Sat, Apr 17
4:00 PM
Sat, Apr 17
5:00 PM
Sat, Apr 17
6:00 PM
Sat, Apr 17
7:00 PM
Sat, Apr 17
8:00 PM
Sat, Apr 17
9:00 PM
Sat, Apr 17
10:00 PM
Sat, Apr 17
11:00 PM
Sun, Apr 18
12:00 AM
Sun, Apr 18
1:00 AM
Sun, Apr 18
2:00 AM
Sun, Apr 18
3:00 AM
Sun, Apr 18
4:00 AM
Sun, Apr 18
5:00 AM
Sun, Apr 18
6:00 AM
Sun, Apr 18
7:00 AM
Sun, Apr 18
8:00 AM
Sun, Apr 18
9:00 AM
Sun, Apr 18
10:00 AM
Sun, Apr 18
11:00 AM
Sun, Apr 18
12:00 PM
Sun, Apr 18
1:00 PM
Sun, Apr 18
2:00 PM
Sun, Apr 18
3:00 PM
Sun, Apr 18
4:00 PM
Sun, Apr 18
5:00 PM
Sun, Apr 18
6:00 PM
Sun, Apr 18
7:00 PM
Sun, Apr 18
8:00 PM
Sun, Apr 18
9:00 PM
Sun, Apr 18
10:00 PM
Sun, Apr 18
11:00 PM
Condition
Rain

Rain

Rain

Rain

Clouds

Rain

Rain

Clouds

Rain

Rain

Rain

Rain

Rain

Rain

Rain

Rain

Rain

Rain

Rain

Rain

Rain

Rain

Rain

Rain

Rain

Clouds

Clouds

Clouds

Clouds

Clouds

Clouds

Clouds

Clouds

Clouds

Clouds

Clouds

Clouds

Clouds

Clear

Clear

Clouds

Clouds

Clear

Clear

Clouds

Clouds

Clouds

Clouds
Temperature 61°F60°F61°F62°F63°F64°F65°F65°F65°F65°F65°F65°F65°F65°F65°F65°F65°F63°F62°F61°F61°F61°F60°F60°F60°F60°F59°F59°F58°F57°F56°F55°F57°F59°F62°F65°F68°F69°F71°F72°F72°F71°F70°F66°F62°F63°F62°F60°F
Feels Like 61°F60°F61°F62°F63°F64°F65°F65°F66°F66°F66°F66°F66°F66°F66°F66°F65°F64°F62°F61°F61°F61°F60°F60°F60°F60°F59°F59°F58°F57°F56°F55°F56°F58°F61°F64°F67°F68°F70°F71°F71°F70°F69°F65°F62°F62°F61°F59°F
Cloudiness 92%90%92%94%96%98%100%100%100%100%100%100%100%100%100%100%100%100%100%100%100%100%100%100%100%100%100%95%96%97%91%82%24%20%22%28%24%21%3%4%13%11%9%9%48%73%82%85%
Visibility 6 mi6 mi6 mi6 mi6 mi6 mi6 mi6 mi4 mi6 mi6 mi5 mi4 mi3 mi5 mi6 mi6 mi3 mi1 mi3 mi3 mi4 mi6 mi6 mi6 mi6 mi6 mi6 mi6 mi6 mi6 mi6 mi6 mi6 mi6 mi6 mi6 mi6 mi6 mi6 mi6 mi6 mi6 mi6 mi6 mi6 mi6 mi6 mi
Precipitation 51%61%64%64%55%48%49%49%75%96%97%97%97%97%93%94%93%97%100%100%100%100%100%100%100%80%11%4%2%2%0%0%0%0%0%0%0%0%0%0%0%0%0%0%0%0%0%0%
Humidity 94%94%95%95%96%97%97%97%96%97%97%98%98%98%98%97%96%97%97%97%97%95%96%96%95%94%94%93%93%92%93%92%88%81%70%62%55%49%46%46%46%51%55%66%71%68%69%74%
Dew Point 59°F59°F60°F60°F62°F63°F64°F64°F64°F64°F64°F64°F64°F64°F64°F64°F64°F62°F61°F60°F60°F59°F59°F59°F58°F58°F57°F57°F56°F55°F54°F53°F53°F53°F52°F52°F51°F50°F49°F50°F50°F52°F53°F54°F53°F52°F51°F51°F
Pressure 29.85"29.85"29.85"29.85"29.83"29.8"29.83"29.83"29.85"29.88"29.88"29.88"29.88"29.88"29.88"29.85"29.83"29.85"29.85"29.91"29.94"29.94"29.97"29.94"29.94"29.97"29.94"29.94"29.97"29.97"29.97"30"30.03"30.03"30.03"30.03"30"29.97"29.94"29.91"29.91"29.94"29.94"29.94"29.97"30"30"30"
Wind Speed 8.2 mph10.8 mph7.1 mph6.1 mph4 mph2.7 mph2.8 mph4 mph2.6 mph3.3 mph3.3 mph3.9 mph4 mph4.1 mph5.8 mph6.7 mph7.2 mph9.5 mph11.1 mph9.5 mph10.4 mph7.1 mph6.3 mph8.4 mph9.2 mph6.8 mph7.9 mph6.7 mph7.4 mph7.2 mph7.4 mph7.8 mph8.6 mph7.9 mph8.7 mph7.4 mph6 mph5.3 mph4.5 mph4.2 mph5.4 mph5.8 mph6 mph6.4 mph8.3 mph8.7 mph7.4 mph9.4 mph
Wind
Direction
147°
SSE
151°
SSE
153°
SSE
144°
SE
147°
SSE
120°
ESE
82°
E
72°
ENE
33°
NNE
38°
NE
11°
N

N
13°
NNE
345°
NNW
357°
N
11°
N

N
359°
N

N

N
360°
N

N

N
20°
NNE
22°
NNE
342°
NNW
358°
N
353°
N
345°
NNW
358°
N
11°
N
13°
NNE

N
10°
N

N

N
357°
N
346°
NNW
343°
NNW
331°
NNW
326°
NW
320°
NW
331°
NNW
350°
N
358°
N
347°
NNW
353°
N
348°
NNW

Daily Forecast

Date High Low Precip. Humidity
Today
Apr 17

Rain
65 °F
60 °F
100%
98%
Sunday
Apr 18

Rain
72 °F
55 °F
100%
55%
Monday
Apr 19

Clear
71 °F
52 °F
0%
41%
Tuesday
Apr 20

Clouds
74 °F
59 °F
0%
48%
Wednesday
Apr 21

Clouds
66 °F
49 °F
0%
34%
Thursday
Apr 22

Clouds
68 °F
47 °F
0%
38%
Friday
Apr 23

Clouds
69 °F
57 °F
0%
50%
Saturday
Apr 24

Clouds
71 °F
60 °F
6%
58%
Sunday
Apr 25

Clouds
75 °F
63 °F
0%
65%
Monday
Apr 26

Rain
75 °F
69 °F
81%
77%
Tuesday
Apr 27

Rain
74 °F
68 °F
100%
90%
Wednesday
Apr 28

Rain
70 °F
65 °F
100%
93%
Thursday
Apr 29

Rain
80 °F
68 °F
61%
75%
Friday
Apr 30

Clouds
81 °F
71 °F
0%
70%
Saturday
May 1

Clouds
82 °F
70 °F
0%
67%
Sunday
May 2

Clear
84 °F
70 °F
0%
64%

Temperature 8-14 Day Outlook



Precipitation 8-14 Day Outlook




Quick Links
Biloxi News
Biloxi Photos
Biloxi Videos




About Us
Contact Us
Site Map
Search Site
Advertise With Us
   
Biloxi.USGulf.info
THE BILOXI WEBSITE

Copyright 2021, Coastal Town
Privacy    |    Legal